Location: Unspecified
(40.7945°N, 0.0000°E)
Time: 06:08:25
(UTC+00:00)

A-11 Canister half - Pass Details

Date: 21 January 2021
Orbit: 1516 x 1684 km, 47.2° (Epoch: 28 February)

Event Time Altitude Azimuth Distance (km) Brightness Sun altitude
Rises 02:40:17 0° 296° (WNW) 4,664 - -52.1°
Reaches altitude 10° 02:43:19 10° 296° (WNW) 3,679 - -51.5°
Maximum altitude 02:52:35 86° 211° (SSW) 1,534 - -49.9°
Exits shadow 02:58:35 26° 123° (ESE) 2,668 10.4 -48.8°
Drops below altitude 10° 03:02:01 10° 123° (ESE) 3,734 11.3 -48.2°
Sets 03:05:06 0° 123° (ESE) 4,736 12.0 -47.6°
